This demonstration page uses our WeatherBlox Daily Observations layout. Learn more.

Hourly Observations for February 4, 2020

Temp ( °F °C ) Dew Point ( °F °C ) Humidity (%) Winds ( mph kmh ) Pressure ( in mb ) Visibility ( mi km ) Precip ( " mm )
12:15 am 00:15 Cloudy 26 -3.4 16 -9 66 66 NNE 23 37 30.12 1020 10 16.0934 0 0
12:35 am 00:35 Cloudy 26 -3.6 16 -8.9 67 67 NNE 21 33 30.12 1020 10 16.0934 0 0
12:55 am 00:55 Cloudy 25 -3.7 16 -8.9 68 68 N 18 30 30.13 1020 10 16.0934 0 0
1:15 am 01:15 Cloudy 25 -3.7 15 -9.2 66 66 N 21 33 30.13 1020 10 16.0934 0 0
1:35 am 01:35 Cloudy 25 -3.8 15 -9.2 66 66 N 23 37 30.13 1020 10 16.0934 0 0
1:55 am 01:55 Cloudy 25 -3.8 17 -8.5 70 70 N 22 35 30.14 1021 10 16.0934 0 0
2:15 am 02:15 Cloudy 25 -4 16 -8.7 70 70 N 21 33 30.14 1021 10 16.0934 0 0
2:35 am 02:35 Cloudy 25 -4.1 16 -8.8 70 70 N 22 35 30.14 1021 10 16.0934 0 0
2:55 am 02:55 Cloudy 24 -4.2 16 -8.9 70 70 N 20 31 30.16 1021 10 16.0934 0 0
3:15 am 03:15 Cloudy 24 -4.3 16 -9 70 70 N 21 33 30.17 1022 10 16.0934 0 0
3:35 am 03:35 Cloudy 24 -4.3 15 -9.7 66 66 N 17 28 30.19 1022 10 16.0934 0 0
3:55 am 03:55 Cloudy 24 -4.3 14 -9.8 66 66 N 16 26 30.19 1022 10 16.0934 0 0
4:15 am 04:15 Cloudy 24 -4.5 14 -10.1 65 65 N 24 39 30.18 1022 10 16.0934 0 0
4:35 am 04:35 Cloudy 24 -4.5 14 -10.2 65 65 NNE 22 35 30.17 1022 10 16.0934 0 0
4:55 am 04:55 Cloudy 24 -4.5 14 -10.2 65 65 N 22 35 30.18 1022 10 16.0934 0 0
5:15 am 05:15 Cloudy 24 -4.6 13 -10.4 64 64 N 22 35 30.18 1022 10 16.0934 0 0
5:35 am 05:35 Mostly Cloudy 24 -4.7 13 -10.6 64 64 N 18 30 30.2 1023 10 16.0934 0 0
5:55 am 05:55 Partly Cloudy 24 -4.7 13 -10.6 64 64 N 16 26 30.21 1023 10 16.0934 0 0
6:15 am 06:15 Mostly Cloudy 23 -5 12 -11.1 63 63 N 18 30 30.22 1023 10 16.0934 0 0
6:35 am 06:35 Cloudy 23 -5 11 -11.5 61 61 N 16 26 30.23 1024 10 16.0934 0 0
6:55 am 06:55 Cloudy 23 -5 11 -11.8 59 59 NNE 22 35 30.23 1024 10 16.0934 0 0
7:15 am 07:15 Cloudy 23 -5.1 11 -11.8 60 60 NNE 21 33 30.24 1024 10 16.0934 0 0
7:35 am 07:35 Cloudy 23 -5.1 11 -11.6 61 61 NNE 20 31 30.24 1024 10 16.0934 0 0
7:55 am 07:55 Cloudy 23 -5.1 11 -11.6 61 61 NNE 20 31 30.26 1025 10 16.0934 0 0
8:15 am 08:15 Cloudy 23 -5.2 11 -11.7 61 61 N 16 26 30.28 1025 10 16.0934 0 0
8:35 am 08:35 Cloudy 23 -5.1 11 -11.8 60 60 NNE 22 35 30.29 1026 10 16.0934 0 0
8:55 am 08:55 Cloudy 23 -4.9 11 -11.5 60 60 NNE 18 30 30.29 1026 10 16.0934 0 0
9:15 am 09:15 Cloudy 23 -5 11 -11.9 59 59 NNE 21 33 30.3 1026 10 16.0934 0 0
9:35 am 09:35 Cloudy 23 -5 10 -12.2 57 57 N 20 31 30.3 1026 10 16.0934 0 0
9:55 am 09:55 Cloudy 24 -4.5 10 -12.1 56 56 NNE 22 35 30.3 1026 10 16.0934 0 0
10:15 am 10:15 Cloudy 24 -4.2 9 -12.6 52 52 NNE 23 37 30.3 1026 10 16.0934 0 0
10:35 am 10:35 Mostly Cloudy 25 -4 8 -13.1 50 50 NNE 22 35 30.3 1026 10 16.0934 0 0
10:55 am 10:55 Mostly Cloudy 25 -3.8 8 -13.1 49 49 NNE 21 33 30.3 1026 10 16.0934 0 0
11:15 am 11:15 Cloudy 26 -3.3 9 -12.8 48 48 N 22 35 30.3 1026 10 16.0934 0 0
11:35 am 11:35 Cloudy 26 -3.5 8 -13.3 47 47 NNE 22 35 30.3 1026 10 16.0934 0 0
11:55 am 11:55 Cloudy 27 -2.7 7 -14 42 42 NNE 23 37 30.28 1025 10 16.0934 0 0
12:15 pm 12:15 Cloudy 28 -2.4 6 -14.5 39 39 NNE 22 35 30.28 1025 10 16.0934 0 0
12:35 pm 12:35 Cloudy 29 -1.8 5 -14.9 36 36 NNE 18 30 30.26 1025 10 16.0934 0 0
12:55 pm 12:55 Mostly Cloudy 29 -1.5 5 -14.8 36 36 NNE 23 37 30.26 1025 10 16.0934 0 0
1:15 pm 13:15 Mostly Cloudy 29 -1.6 5 -15 36 36 NE 21 33 30.26 1025 10 16.0934 0 0
1:35 pm 13:35 Cloudy 29 -1.6 4 -15.5 34 34 NE 21 33 30.26 1025 10 16.0934 0 0
1:55 pm 13:55 Cloudy 30 -1.2 4 -15.7 33 33 NNE 16 26 30.26 1025 10 16.0934 0 0
2:15 pm 14:15 Cloudy 30 -1.1 6 -14.5 36 36 NNE 18 30 30.26 1025 10 16.0934 0 0
2:35 pm 14:35 Mostly Cloudy 30 -1.3 7 -14 38 38 NNE 18 30 30.26 1025 10 16.0934 0 0
2:55 pm 14:55 Mostly Cloudy 29 -1.6 7 -13.7 40 40 NNE 18 30 30.27 1025 10 16.0934 0 0
3:15 pm 15:15 Cloudy 29 -1.6 8 -13.2 41 41 NNE 20 31 30.27 1025 10 16.0934 0 0
3:35 pm 15:35 Cloudy 29 -1.9 8 -13.3 42 42 NE 21 33 30.26 1025 10 16.0934 0 0
3:55 pm 15:55 Cloudy 29 -1.5 8 -13.1 41 41 NNE 23 37 30.24 1024 10 16.0934 0 0
4:15 pm 16:15 Cloudy 29 -1.5 9 -12.9 42 42 NE 18 30 30.26 1025 10 16.0934 0 0
4:35 pm 16:35 Mostly Cloudy 28 -2.2 8 -13.2 43 43 NNE 22 35 30.27 1025 10 16.0934 0 0
4:55 pm 16:55 Mostly Cloudy 28 -2.5 10 -12.2 48 48 NE 18 30 30.27 1025 10 16.0934 0 0
5:15 pm 17:15 Cloudy 27 -2.8 11 -11.9 50 50 NE 20 31 30.28 1025 10 16.0934 0 0
5:35 pm 17:35 Cloudy 27 -3 11 -11.5 52 52 NE 16 26 30.28 1026 10 16.0934 0 0
5:55 pm 17:55 Cloudy 26 -3.2 11 -11.8 52 52 NE 12 19 30.3 1026 10 16.0934 0 0
6:15 pm 18:15 Cloudy 26 -3.2 11 -11.6 53 53 NE 13 20 30.29 1026 10 16.0934 0 0
6:35 pm 18:35 Cloudy 26 -3.4 11 -11.6 53 53 NE 14 22 30.31 1026 10 16.0934 0 0
6:55 pm 18:55 Cloudy 26 -3.5 11 -11.5 54 54 NNE 10 17 30.3 1026 10 16.0934 0 0
7:15 pm 19:15 Cloudy 26 -3.6 11 -11.6 54 54 NNE 12 19 30.3 1026 10 16.0934 0 0
7:35 pm 19:35 Cloudy 25 -3.7 12 -11 57 57 NNE 10 17 30.32 1027 10 16.0934 0 0
7:55 pm 19:55 Cloudy 25 -3.7 13 -10.8 58 58 NNE 12 19 30.31 1026 10 16.0934 0 0
8:15 pm 20:15 Cloudy 25 -3.8 12 -11.3 56 56 NNE 10 17 30.32 1027 10 16.0934 0 0
8:35 pm 20:35 Cloudy 25 -3.8 13 -10.7 59 59 N 9 15 30.32 1027 10 16.0934 0 0
8:55 pm 20:55 Cloudy 25 -4 13 -10.7 60 60 N 10 17 30.32 1027 10 16.0934 0 0
9:15 pm 21:15 Cloudy 24 -4.2 13 -10.7 61 61 N 10 17 30.34 1027 10 16.0934 0 0
9:35 pm 21:35 Cloudy 24 -4.2 13 -10.6 61 61 N 12 19 30.34 1027 10 16.0934 0 0
9:55 pm 21:55 Cloudy 24 -4.5 13 -10.6 63 63 N 10 17 30.33 1027 10 16.0934 0 0
10:15 pm 22:15 Cloudy 24 -4.5 13 -10.6 63 63 N 12 19 30.33 1027 10 16.0934 0 0
10:35 pm 22:35 Cloudy 24 -4.5 13 -10.5 63 63 N 10 17 30.32 1027 10 16.0934 0 0
10:55 pm 22:55 Cloudy 24 -4.5 14 -10.1 65 65 N 9 15 30.31 1026 10 16.0934 0 0
11:15 pm 23:15 Cloudy 24 -4.5 14 -10.1 65 65 N 10 17 30.31 1026 10 16.0934 0 0
11:35 pm 23:35 Cloudy 24 -4.5 12 -11 61 61 NNE 14 22 30.31 1026 10 16.0934 0 0
11:55 pm 23:55 Cloudy 23 -5 13 -10.6 65 65 NNE 13 20 30.31 1027 10 16.0934 0 0

Powered by AerisWeather